Вернуться в каталог

PEGASUS DEB

АктивенPO
NORAD 39315·DEBRIS·🇺🇸 United States

Запущен May 19, 1994 с Vandenberg Space Force Base

Loading…

Ближайшие Пролёты (ближайшие 24 часа)

TLE

СвежийSource: Space-Track

Эпоха: Sep 14, 2026, 03:44 UTC

1 39315U 94029AFA 26257.15586685  .00000914  00000-0  26719-3 0  9993
2 39315  81.4968 201.4386 0384805 130.5378 232.9986 14.07620473674941

Отслеживайте PEGASUS DEB в реальном времени с AllMySat

Download on the App Store